Lubbock, TX

9:04 PM CST on November 11, 2019 (GMT -0600)
Lubbock International

Weather History for KLBB - August, 2019

Change the Weather History Date:

Thursday, August 1, 2019

  Actual Average Record
Temperature  
Mean Temperature 85 °F 80 °F  
Max Temperature 99 °F 93 °F 106 °F (1966)
Min Temperature 70 °F 68 °F 55 °F (1925)
Degree Days  
Heating Degree Days 0 0  
Month to date heating degree days 0 0  
Since 1 June heating degree days 0 2  
Since 1 July heating degree days 0 0  
Cooling Degree Days 20 15  
Month to date cooling degree days 20 15  
Year to date cooling degree days 1127 1108  
Since 1 June cooling degree days 917 862  
Growing Degree Days 34 (Base 50)    
Moisture  
Dew Point 54 °F    
Average Humidity 40    
Maximum Humidity 61    
Minimum Humidity 18    
Precipitation  
Precipitation 0.00 in 0.05 in 1.76 in (2017)
Month to date precipitation 0.00 0.05  
Year to date precipitation 13.45 11.21  
Snow  
Snow 0.00 in 0.00 in 0.00 in (2002)
Month to date snowfall 0.0 0.0  
Since 1 June snowfall 0.0 0.0  
Since 1 July snowfall 0.0 0.0  
Snow Depth 0.00 in    
Sea Level Pressure  
Sea Level Pressure 29.93 in    
Wind  
Wind Speed 10 mph (South)    
Max Wind Speed 20 mph    
Max Gust Speed 25 mph    
Visibility 10 miles    
Events      
T = Trace of Precipitation, MM = Missing Value Source: NWS Daily Summary

Daily Weather History Graph

Daily Weather History Graph

Search for Another Location

Airport or City:

Astronomy

Aug. 01, 2019 Rise Set
Actual Time 6:59 AM CDT 8:47 PM CDT
Civil Twilight 6:32 AM CDT 9:14 PM CDT
Nautical Twilight 5:59 AM CDT 9:47 PM CDT
Astronomical Twilight 5:24 AM CDT 10:22 PM CDT
Moon 7:27 AM CDT (8/1) 9:37 PM CDT (8/1)
Length of Visible Light 14h 42m
Length of Day
13h 48m
New Moon, 1% of the Moon is Illuminated
Aug 1
New Moon
Aug 7
First Quarter
Aug 15
Full
Aug 23
Last Quarter
Aug 30
New

Hourly Weather History & Observations

Time (CDT) Temp. Heat Index Dew Point Humidity Pressure Visibility Wind Dir Wind Speed Gust Speed Precip Events Conditions
12:53 AM 77.0 °F - 53.1 °F 43% 29.94 in 10.0 mi SE 6.9 mph - N/A   Partly Cloudy
1:53 AM 77.0 °F - 53.1 °F 43% 29.93 in 10.0 mi SE 8.1 mph - N/A   Partly Cloudy
2:53 AM 75.9 °F - 54.0 °F 46% 29.93 in 10.0 mi SSE 9.2 mph - N/A   Partly Cloudy
3:53 AM 73.9 °F - 55.0 °F 52% 29.92 in 10.0 mi SSE 8.1 mph - N/A   Partly Cloudy
4:53 AM 73.0 °F - 55.9 °F 55% 29.92 in 10.0 mi SSE 5.8 mph - N/A   Partly Cloudy
5:53 AM 71.1 °F - 55.9 °F 59% 29.93 in 10.0 mi SSE 6.9 mph - N/A   Partly Cloudy
6:53 AM 72.0 °F - 57.0 °F 59% 29.94 in 10.0 mi South 5.8 mph - N/A   Partly Cloudy
7:53 AM 75.0 °F - 57.9 °F 55% 29.96 in 10.0 mi SW 3.5 mph - N/A   Partly Cloudy
8:53 AM 81.0 °F 81.0 °F 57.0 °F 44% 29.96 in 10.0 mi WSW 11.5 mph - N/A   Partly Cloudy
9:53 AM 84.9 °F 83.9 °F 57.0 °F 38% 29.97 in 10.0 mi SW 13.8 mph - N/A   Partly Cloudy
10:53 AM 88.0 °F 86.7 °F 57.0 °F 35% 29.98 in 10.0 mi SW 12.7 mph - N/A   Partly Cloudy
11:53 AM 91.0 °F 89.7 °F 57.0 °F 32% 29.98 in 10.0 mi SW 12.7 mph - N/A   Partly Cloudy
12:53 PM 93.0 °F 91.4 °F 55.9 °F 29% 29.97 in 10.0 mi Variable 6.9 mph - N/A   Scattered Clouds
1:53 PM 96.1 °F 94.1 °F 55.0 °F 25% 29.95 in 10.0 mi SSW 6.9 mph 19.6 mph N/A   Scattered Clouds
2:53 PM 98.1 °F 96.1 °F 54.0 °F 23% 29.93 in 10.0 mi South 15.0 mph 25.3 mph N/A   Partly Cloudy
3:53 PM 97.0 °F 94.6 °F 53.1 °F 23% 29.92 in 10.0 mi South 10.4 mph 20.7 mph N/A   Partly Cloudy
4:53 PM 98.1 °F - 52.0 °F 21% 29.90 in 10.0 mi South 15.0 mph 21.9 mph N/A   Partly Cloudy
5:53 PM 98.1 °F - 48.9 °F 19% 29.89 in 10.0 mi South 13.8 mph 24.2 mph N/A   Partly Cloudy
6:53 PM 97.0 °F - 48.9 °F 19% 29.87 in 10.0 mi South 12.7 mph - N/A   Partly Cloudy
7:53 PM 93.9 °F - 51.1 °F 23% 29.87 in 10.0 mi South 10.4 mph - N/A   Partly Cloudy
8:53 PM 90.0 °F - 50.0 °F 25% 29.87 in 10.0 mi SSW 9.2 mph - N/A   Scattered Clouds
9:53 PM 88.0 °F 85.7 °F 53.1 °F 30% 29.88 in 10.0 mi SSE 11.5 mph - N/A   Partly Cloudy
10:53 PM 86.0 °F 84.2 °F 54.0 °F 33% 29.91 in 10.0 mi SSE 11.5 mph - N/A   Clear
11:53 PM 84.9 °F 83.7 °F 55.9 °F 37% 29.92 in 10.0 mi South 11.5 mph - N/A   Clear